User: anonymous
Location: Deer Lake
(49.1830°N, 57.4330°W)
Time: 09:12:19
(UTC-02:-30)
Language:

Cosmos 1707 - Orbit

View from above orbital plane
View from above orbital plane
View from above satellite
View from above satellite

Ground track
Ground track

The orbit data is extracted from the following two-line orbital elements,

1 16326U 85113A   14114.11534102  .00005420  00000-0  35031-3 0  8922
2 16326 082.5129 254.5872 0009622 274.3166 085.6963 15.08001839543631
Epoch (UTC): 24 April 2014 02:46:05
Eccentricity: 0.0009622
inclination: 82.5129°
perigee height: 535 km
apogee height: 549 km
right ascension of ascending node: 254.5872°
argument of perigee: 274.3166°
revolutions per day: 15.08001839
mean anomaly at epoch: 85.6963°
orbit number at epoch: 54363

The dashed part of the orbit path shows where the satellite is in the earth's shadow,  

DLR